QPF
0.11 0.10 0.11 0.11 0.10 0.09 0.07 0.05 0.04 0.03 0.02 0.02 0.02 0.02 0.02 0.02 0.03 0.03 0.02 0.02 0.02 0.02 0.02 0.02 0.02 0.02 0.04 0.06 0.06 0.07 0.08 0.10 0.10 0.08 0.05 0.04 0.04 0.05
0.11 0.09 0.09 0.10 0.11 0.11 0.11 0.09 0.07 0.05 0.04 0.02 0.01 0.01 0.02 0.02 0.02 0.02 0.02 0.02 0.02 0.01 0.01 0.02 0.02 0.02 0.02 0.04 0.05 0.06 0.06 0.08 0.11 0.13 0.12 0.08 0.06 0.04
0.12 0.11 0.09 0.07 0.08 0.09 0.09 0.10 0.10 0.08 0.07 0.04 0.02 0.02 0.02 0.02 0.01 0.01 0.01 0.02 0.02 0.02 0.02 0.01 0.02 0.02 0.02 0.03 0.04 0.05 0.05 0.05 0.07 0.09 0.11 0.12 0.11 0.09
0.09 0.09 0.08 0.08 0.07 0.07 0.06 0.06 0.05 0.04 0.05 0.04 0.03 0.03 0.02 0.02 0.01 0.01 0.01 0.02 0.02 0.03 0.03 0.03 0.02 0.02 0.02 0.02 0.03 0.04 0.06 0.06 0.06 0.06 0.07 0.09 0.11 0.13
0.07 0.06 0.06 0.06 0.06 0.06 0.05 0.05 0.04 0.03 0.03 0.03 0.02 0.03 0.03 0.03 0.02 0.02 0.02 0.01 0.02 0.02 0.03 0.03 0.03 0.03 0.02 0.02 0.03 0.04 0.05 0.07 0.08 0.08 0.08 0.07 0.09 0.12
0.06 0.06 0.05 0.04 0.04 0.04 0.05 0.04 0.03 0.04 0.04 0.04 0.03 0.02 0.02 0.02 0.03 0.03 0.02 0.02 0.02 0.02 0.02 0.03 0.03 0.03 0.03 0.03 0.03 0.04 0.04 0.06 0.08 0.09 0.10 0.10 0.09 0.09
0.06 0.06 0.06 0.06 0.05 0.05 0.05 0.04 0.04 0.04 0.03 0.03 0.03 0.03 0.02 0.02 0.02 0.02 0.02 0.02 0.02 0.02 0.02 0.02 0.02 0.03 0.03 0.03 0.03 0.03 0.04 0.04 0.06 0.07 0.08 0.09 0.10 0.10
0.07 0.07 0.07 0.08 0.07 0.05 0.05 0.04 0.04 0.04 0.05 0.04 0.03 0.03 0.02 0.02 0.02 0.03 0.03 0.04 0.04 0.03 0.03 0.03 0.04 0.03 0.03 0.03 0.02 0.02 0.03 0.03 0.04 0.05 0.06 0.07 0.07 0.08
0.08 0.07 0.07 0.07 0.07 0.06 0.05 0.04 0.04 0.04 0.05 0.04 0.04 0.02 0.02 0.01 0.02 0.03 0.04 0.04 0.04 0.04 0.05 0.05 0.05 0.05 0.04 0.03 0.03 0.02 0.03 0.03 0.03 0.03 0.03 0.04 0.06 0.06
0.08 0.07 0.06 0.07 0.07 0.07 0.07 0.05 0.04 0.04 0.04 0.03 0.03 0.03 0.02 0.02 0.03 0.04 0.04 0.04 0.04 0.05 0.07 0.08 0.07 0.06 0.05 0.04 0.03 0.03 0.02 0.03 0.03 0.03 0.03 0.03 0.04 0.05
0.08 0.07 0.07 0.06 0.07 0.07 0.07 0.06 0.04 0.04 0.04 0.04 0.04 0.04 0.04 0.04 0.04 0.05 0.06 0.06 0.05 0.05 0.06 0.07 0.07 0.06 0.06 0.05 0.03 0.03 0.02 0.02 0.02 0.02 0.02 0.03 0.03 0.04
0.06 0.06 0.07 0.06 0.07 0.07 0.07 0.06 0.05 0.04 0.03 0.04 0.04 0.04 0.03 0.03 0.04 0.04 0.05 0.07 0.06 0.05 0.04 0.04 0.05 0.05 0.06 0.05 0.04 0.02 0.02 0.02 0.02 0.02 0.02 0.03 0.03 0.04
0.06 0.06 0.06 0.07 0.07 0.07 0.07 0.06 0.05 0.04 0.04 0.04 0.04 0.04 0.04 0.03 0.03 0.03 0.04 0.06 0.07 0.06 0.04 0.04 0.04 0.05 0.05 0.05 0.04 0.03 0.02 0.02 0.02 0.02 0.02 0.03 0.03 0.04
0.05 0.05 0.05 0.06 0.07 0.06 0.07 0.06 0.05 0.05 0.05 0.04 0.04 0.03 0.04 0.04 0.04 0.04 0.04 0.05 0.06 0.06 0.06 0.05 0.05 0.05 0.05 0.05 0.04 0.03 0.03 0.02 0.02 0.02 0.02 0.03 0.04 0.04
0.06 0.06 0.07 0.07 0.07 0.07 0.07 0.07 0.06 0.05 0.05 0.04 0.04 0.03 0.03 0.03 0.04 0.05 0.05 0.05 0.06 0.06 0.07 0.07 0.07 0.06 0.06 0.05 0.04 0.03 0.03 0.02 0.02 0.02 0.02 0.02 0.03 0.04
0.07 0.07 0.08 0.08 0.08 0.08 0.08 0.06 0.05 0.04 0.03 0.03 0.03 0.03 0.03 0.03 0.04 0.04 0.05 0.05 0.06 0.06 0.06 0.07 0.07 0.08 0.07 0.06 0.05 0.04 0.03 0.03 0.02 0.02 0.03 0.02 0.02 0.03
0.07 0.08 0.08 0.08 0.09 0.09 0.08 0.06 0.04 0.04 0.03 0.03 0.03 0.03 0.03 0.04 0.04 0.04 0.04 0.05 0.05 0.05 0.05 0.06 0.07 0.07 0.07 0.06 0.06 0.04 0.04 0.04 0.03 0.03 0.03 0.03 0.03 0.02
0.07 0.07 0.06 0.07 0.07 0.07 0.06 0.06 0.04 0.04 0.04 0.04 0.04 0.04 0.03 0.04 0.04 0.04 0.04 0.04 0.04 0.04 0.05 0.05 0.05 0.06 0.07 0.07 0.06 0.04 0.03 0.03 0.03 0.03 0.03 0.04 0.03 0.02
0.06 0.06 0.05 0.05 0.05 0.05 0.05 0.05 0.04 0.04 0.04 0.04 0.05 0.05 0.04 0.04 0.04 0.05 0.04 0.04 0.04 0.04 0.04 0.04 0.04 0.05 0.06 0.05 0.05 0.04 0.03 0.03 0.03 0.03 0.02 0.02 0.02 0.02
0.06 0.05 0.05 0.04 0.04 0.04 0.04 0.04 0.04 0.04 0.05 0.05 0.05 0.05 0.05 0.05 0.05 0.05 0.04 0.04 0.04 0.04 0.04 0.04 0.04 0.04 0.05 0.04 0.03 0.03 0.03 0.03 0.03 0.03 0.03 0.02 0.02 0.02
0.05 0.04 0.04 0.04 0.04 0.04 0.03 0.04 0.04 0.04 0.04 0.04 0.04 0.04 0.04 0.04 0.05 0.05 0.05 0.04 0.04 0.04 0.04 0.04 0.03 0.04 0.04 0.05 0.05 0.04 0.03 0.03 0.03 0.04 0.04 0.03 0.03 0.03
0.03 0.04 0.04 0.04 0.04 0.04 0.04 0.03 0.04 0.04 0.04 0.04 0.04 0.04 0.04 0.04 0.05 0.05 0.04 0.04 0.04 0.03 0.03 0.03 0.04 0.04 0.04 0.04 0.04 0.03 0.02 0.02 0.03 0.04 0.03 0.04 0.04 0.04
0.03 0.03 0.03 0.04 0.04 0.04 0.04 0.03 0.03 0.03 0.03 0.03 0.03 0.03 0.03 0.04 0.04 0.03 0.03 0.03 0.03 0.03 0.03 0.03 0.03 0.03 0.03 0.03 0.03 0.02 0.02 0.03 0.03 0.03 0.03 0.03 0.03 0.03
MSLP
1031.49 1031.56 1031.67 1031.80 1031.98 1032.17 1032.37 1032.56 1032.71 1032.80 1032.81 1032.73 1032.54 1032.26 1031.89 1031.45 1030.95 1030.41 1029.86 1029.31 1028.77 1028.27 1027.80 1027.37 1026.98 1026.64 1026.33 1026.04 1025.78 1025.51 1025.23 1024.91 1024.54 1024.11 1023.60 1023.00 1022.30 1021.50
1031.24 1031.31 1031.40 1031.54 1031.70 1031.89 1032.10 1032.31 1032.48 1032.62 1032.68 1032.67 1032.56 1032.36 1032.08 1031.72 1031.30 1030.84 1030.36 1029.88 1029.41 1028.96 1028.54 1028.14 1027.77 1027.43 1027.09 1026.77 1026.45 1026.12 1025.78 1025.42 1025.02 1024.58 1024.08 1023.52 1022.90 1022.20
1030.80 1030.86 1030.96 1031.08 1031.24 1031.43 1031.65 1031.87 1032.09 1032.28 1032.41 1032.48 1032.47 1032.37 1032.18 1031.92 1031.60 1031.24 1030.86 1030.46 1030.06 1029.67 1029.30 1028.93 1028.57 1028.22 1027.85 1027.49 1027.11 1026.73 1026.33 1025.92 1025.50 1025.06 1024.60 1024.11 1023.58 1023.00
1030.21 1030.27 1030.36 1030.47 1030.62 1030.81 1031.04 1031.28 1031.54 1031.78 1031.99 1032.15 1032.23 1032.24 1032.17 1032.02 1031.81 1031.56 1031.27 1030.96 1030.65 1030.33 1030.00 1029.67 1029.32 1028.96 1028.58 1028.17 1027.75 1027.32 1026.88 1026.44 1026.01 1025.59 1025.17 1024.76 1024.33 1023.89
1029.52 1029.57 1029.65 1029.75 1029.89 1030.08 1030.30 1030.57 1030.86 1031.15 1031.43 1031.66 1031.84 1031.96 1032.00 1031.96 1031.87 1031.73 1031.55 1031.34 1031.11 1030.87 1030.60 1030.31 1029.98 1029.62 1029.23 1028.80 1028.35 1027.89 1027.43 1026.99 1026.56 1026.17 1025.80 1025.46 1025.13 1024.81
1028.79 1028.83 1028.88 1028.97 1029.10 1029.27 1029.50 1029.77 1030.07 1030.40 1030.72 1031.03 1031.29 1031.49 1031.64 1031.71 1031.73 1031.70 1031.63 1031.52 1031.39 1031.23 1031.03 1030.79 1030.51 1030.18 1029.79 1029.37 1028.91 1028.45 1027.99 1027.55 1027.15 1026.79 1026.47 1026.19 1025.94 1025.72
1028.04 1028.06 1028.11 1028.17 1028.28 1028.43 1028.64 1028.90 1029.21 1029.55 1029.90 1030.25 1030.57 1030.84 1031.07 1031.24 1031.36 1031.44 1031.48 1031.48 1031.45 1031.38 1031.27 1031.10 1030.88 1030.59 1030.24 1029.85 1029.42 1028.98 1028.54 1028.13 1027.76 1027.43 1027.15 1026.91 1026.72 1026.55
1027.31 1027.30 1027.32 1027.36 1027.43 1027.56 1027.74 1027.98 1028.27 1028.61 1028.96 1029.33 1029.68 1030.01 1030.30 1030.55 1030.76 1030.94 1031.08 1031.20 1031.27 1031.31 1031.29 1031.21 1031.07 1030.85 1030.57 1030.23 1029.86 1029.46 1029.07 1028.70 1028.37 1028.07 1027.82 1027.61 1027.43 1027.28
1026.57 1026.53 1026.51 1026.52 1026.56 1026.65 1026.80 1027.01 1027.28 1027.59 1027.94 1028.30 1028.67 1029.02 1029.36 1029.67 1029.96 1030.23 1030.47 1030.69 1030.87 1031.02 1031.11 1031.13 1031.08 1030.96 1030.77 1030.51 1030.21 1029.88 1029.56 1029.24 1028.95 1028.69 1028.46 1028.26 1028.07 1027.90
1025.80 1025.72 1025.66 1025.63 1025.64 1025.70 1025.82 1026.00 1026.23 1026.51 1026.84 1027.19 1027.55 1027.92 1028.28 1028.64 1029.00 1029.34 1029.67 1029.99 1030.28 1030.54 1030.74 1030.88 1030.94 1030.92 1030.82 1030.66 1030.45 1030.21 1029.96 1029.71 1029.48 1029.25 1029.04 1028.84 1028.64 1028.44
1024.99 1024.85 1024.76 1024.69 1024.68 1024.71 1024.80 1024.95 1025.15 1025.40 1025.70 1026.03 1026.39 1026.76 1027.14 1027.53 1027.94 1028.35 1028.76 1029.17 1029.56 1029.92 1030.23 1030.48 1030.65 1030.74 1030.75 1030.69 1030.59 1030.44 1030.27 1030.10 1029.92 1029.74 1029.56 1029.37 1029.16 1028.92
1024.13 1023.95 1023.81 1023.72 1023.68 1023.70 1023.77 1023.89 1024.07 1024.30 1024.58 1024.89 1025.23 1025.60 1025.99 1026.41 1026.86 1027.32 1027.80 1028.29 1028.77 1029.23 1029.64 1029.98 1030.25 1030.45 1030.56 1030.61 1030.60 1030.55 1030.47 1030.38 1030.27 1030.15 1030.01 1029.84 1029.63 1029.39
1023.25 1023.03 1022.86 1022.76 1022.70 1022.71 1022.77 1022.88 1023.04 1023.26 1023.51 1023.80 1024.13 1024.50 1024.90 1025.34 1025.81 1026.32 1026.86 1027.42 1027.97 1028.50 1028.99 1029.43 1029.79 1030.07 1030.28 1030.42 1030.50 1030.54 1030.55 1030.54 1030.51 1030.45 1030.36 1030.23 1030.06 1029.84
1022.41 1022.16 1021.97 1021.85 1021.79 1021.79 1021.85 1021.95 1022.11 1022.31 1022.54 1022.82 1023.14 1023.49 1023.90 1024.35 1024.85 1025.39 1025.97 1026.58 1027.19 1027.78 1028.34 1028.84 1029.27 1029.63 1029.92 1030.14 1030.30 1030.42 1030.51 1030.57 1030.62 1030.63 1030.60 1030.53 1030.41 1030.23
1021.66 1021.40 1021.20 1021.07 1021.01 1021.00 1021.05 1021.15 1021.29 1021.48 1021.70 1021.96 1022.26 1022.61 1023.01 1023.47 1023.98 1024.55 1025.16 1025.80 1026.45 1027.09 1027.69 1028.24 1028.73 1029.15 1029.49 1029.78 1030.00 1030.19 1030.35 1030.48 1030.58 1030.66 1030.70 1030.70 1030.63 1030.51
1021.07 1020.79 1020.59 1020.46 1020.39 1020.38 1020.41 1020.49 1020.61 1020.77 1020.97 1021.21 1021.49 1021.83 1022.22 1022.68 1023.20 1023.78 1024.41 1025.07 1025.75 1026.41 1027.05 1027.64 1028.16 1028.62 1029.02 1029.35 1029.62 1029.86 1030.07 1030.25 1030.41 1030.54 1030.63 1030.68 1030.67 1030.61
1020.67 1020.38 1020.17 1020.03 1019.94 1019.91 1019.92 1019.97 1020.06 1020.19 1020.35 1020.56 1020.81 1021.13 1021.52 1021.97 1022.49 1023.07 1023.71 1024.38 1025.07 1025.75 1026.40 1027.01 1027.57 1028.06 1028.49 1028.85 1029.17 1029.44 1029.68 1029.90 1030.08 1030.24 1030.37 1030.45 1030.48 1030.46
1020.46 1020.17 1019.94 1019.77 1019.66 1019.59 1019.56 1019.56 1019.60 1019.68 1019.80 1019.97 1020.20 1020.49 1020.86 1021.30 1021.81 1022.39 1023.02 1023.69 1024.38 1025.07 1025.73 1026.36 1026.94 1027.45 1027.91 1028.30 1028.65 1028.95 1029.21 1029.44 1029.64 1029.81 1029.94 1030.02 1030.06 1030.06
1020.43 1020.12 1019.87 1019.66 1019.50 1019.37 1019.28 1019.23 1019.21 1019.23 1019.30 1019.43 1019.62 1019.88 1020.22 1020.64 1021.13 1021.70 1022.32 1022.98 1023.66 1024.35 1025.02 1025.66 1026.26 1026.80 1027.28 1027.72 1028.09 1028.42 1028.70 1028.93 1029.13 1029.28 1029.39 1029.45 1029.48 1029.46
1020.54 1020.20 1019.91 1019.65 1019.42 1019.23 1019.07 1018.94 1018.85 1018.81 1018.83 1018.91 1019.06 1019.28 1019.60 1019.99 1020.46 1021.00 1021.60 1022.24 1022.91 1023.59 1024.27 1024.92 1025.53 1026.11 1026.63 1027.10 1027.51 1027.86 1028.16 1028.41 1028.60 1028.73 1028.81 1028.83 1028.81 1028.76
1020.75 1020.37 1020.02 1019.70 1019.40 1019.13 1018.89 1018.69 1018.53 1018.43 1018.38 1018.41 1018.52 1018.71 1018.98 1019.34 1019.78 1020.29 1020.86 1021.47 1022.12 1022.79 1023.46 1024.13 1024.77 1025.38 1025.95 1026.46 1026.92 1027.32 1027.65 1027.92 1028.10 1028.22 1028.27 1028.25 1028.19 1028.08
1021.01 1020.59 1020.18 1019.79 1019.41 1019.06 1018.74 1018.46 1018.23 1018.06 1017.97 1017.95 1018.01 1018.16 1018.40 1018.71 1019.11 1019.58 1020.10 1020.68 1021.30 1021.96 1022.62 1023.30 1023.97 1024.62 1025.25 1025.83 1026.35 1026.81 1027.19 1027.48 1027.69 1027.81 1027.84 1027.80 1027.69 1027.55
1021.30 1020.83 1020.36 1019.89 1019.44 1019.01 1018.61 1018.26 1017.97 1017.74 1017.59 1017.52 1017.54 1017.65 1017.84 1018.11 1018.45 1018.87 1019.35 1019.88 1020.47 1021.10 1021.76 1022.44 1023.15 1023.85 1024.53 1025.19 1025.79 1026.32 1026.77 1027.12 1027.37 1027.51 1027.55 1027.51 1027.39 1027.23
Thickness
5457 5457 5457 5457 5457 5458 5458 5457 5457 5457 5462 5463 5462 5464 5465 5466 5468 5470 5472 5474 5477 5480 5482 5483 5485 5488 5490 5492 5493 5495 5497 5499 5502 5504 5507 5508 5510 5512
5442 5443 5443 5443 5443 5442 5443 5444 5444 5446 5447 5450 5449 5450 5451 5452 5453 5456 5458 5461 5464 5466 5469 5471 5473 5475 5477 5479 5480 5482 5483 5486 5489 5491 5493 5495 5498 5500
5429 5429 5430 5429 5429 5429 5429 5429 5430 5431 5432 5434 5435 5436 5436 5438 5439 5441 5444 5447 5450 5452 5455 5457 5459 5462 5464 5465 5467 5468 5471 5473 5475 5477 5479 5482 5485 5487
5415 5416 5416 5416 5415 5415 5415 5415 5416 5417 5417 5419 5421 5421 5423 5425 5426 5428 5430 5433 5436 5438 5441 5444 5446 5448 5450 5452 5454 5455 5457 5459 5461 5463 5466 5469 5472 5473
5402 5403 5404 5403 5403 5402 5403 5402 5403 5404 5404 5405 5407 5408 5409 5411 5412 5414 5416 5418 5421 5424 5427 5430 5432 5434 5436 5438 5440 5442 5443 5445 5448 5450 5451 5454 5456 5459
5389 5390 5391 5391 5392 5391 5391 5390 5390 5390 5391 5392 5393 5393 5394 5396 5397 5398 5401 5404 5407 5409 5412 5415 5417 5420 5422 5425 5427 5428 5429 5430 5432 5434 5436 5439 5442 5445
5376 5377 5378 5379 5380 5380 5380 5379 5378 5378 5379 5379 5380 5381 5381 5381 5383 5385 5387 5389 5391 5393 5396 5400 5402 5405 5407 5409 5411 5413 5415 5416 5418 5420 5421 5423 5426 5429
5363 5364 5365 5366 5367 5367 5368 5368 5368 5367 5368 5368 5369 5370 5371 5370 5370 5370 5370 5371 5376 5380 5380 5384 5386 5390 5392 5395 5397 5398 5400 5402 5403 5405 5407 5409 5411 5414
5349 5350 5351 5352 5352 5352 5352 5353 5354 5355 5356 5356 5357 5357 5357 5358 5357 5357 5356 5357 5361 5363 5362 5369 5371 5374 5377 5379 5382 5384 5385 5386 5388 5390 5392 5394 5396 5399
5335 5336 5337 5338 5338 5338 5338 5338 5339 5340 5341 5342 5343 5344 5343 5342 5342 5343 5343 5343 5345 5346 5347 5351 5356 5359 5362 5365 5367 5369 5370 5371 5372 5374 5376 5378 5380 5383
5322 5323 5323 5324 5324 5325 5325 5325 5326 5326 5326 5327 5329 5329 5329 5328 5327 5326 5325 5326 5330 5332 5332 5334 5340 5342 5347 5350 5353 5354 5355 5356 5357 5358 5361 5363 5365 5367
5308 5309 5310 5310 5311 5311 5310 5311 5311 5312 5311 5312 5313 5313 5313 5312 5312 5311 5311 5310 5313 5317 5320 5319 5322 5323 5328 5336 5338 5338 5339 5340 5341 5343 5346 5348 5350 5352
5294 5295 5295 5296 5297 5297 5297 5297 5298 5297 5296 5296 5296 5296 5297 5297 5297 5296 5296 5296 5297 5301 5304 5303 5305 5306 5309 5316 5321 5322 5322 5324 5325 5328 5330 5333 5336 5338
5280 5280 5281 5282 5283 5283 5282 5282 5282 5281 5280 5280 5280 5281 5282 5282 5282 5282 5282 5282 5283 5286 5287 5287 5289 5291 5293 5297 5303 5307 5308 5308 5309 5313 5315 5318 5322 5325
5265 5266 5267 5267 5267 5266 5266 5266 5265 5264 5264 5265 5266 5267 5267 5267 5266 5267 5267 5268 5269 5270 5272 5273 5274 5277 5279 5283 5287 5290 5292 5294 5295 5298 5301 5303 5307 5310
5249 5250 5251 5251 5250 5250 5250 5248 5248 5248 5249 5250 5251 5251 5250 5250 5251 5251 5252 5253 5255 5257 5257 5258 5259 5261 5265 5268 5271 5275 5277 5279 5283 5284 5286 5290 5293 5296
5233 5233 5233 5233 5233 5233 5232 5232 5232 5232 5232 5233 5234 5234 5235 5235 5236 5236 5237 5238 5239 5242 5243 5244 5244 5247 5250 5253 5256 5261 5263 5266 5268 5270 5272 5276 5280 5283
5218 5217 5216 5216 5216 5216 5216 5216 5216 5217 5217 5217 5218 5219 5220 5221 5221 5221 5222 5223 5225 5227 5229 5229 5230 5232 5235 5240 5244 5246 5249 5252 5254 5256 5258 5262 5268 5272
5201 5200 5200 5199 5199 5199 5199 5200 5201 5201 5201 5202 5203 5204 5205 5206 5206 5208 5209 5210 5211 5212 5213 5214 5216 5217 5220 5226 5232 5233 5235 5238 5240 5243 5246 5250 5255 5260
5185 5185 5185 5185 5184 5184 5185 5185 5186 5186 5187 5187 5188 5189 5190 5191 5192 5193 5194 5196 5197 5198 5199 5201 5203 5205 5208 5212 5216 5221 5223 5225 5228 5231 5234 5238 5242 5246
5169 5169 5170 5170 5170 5170 5171 5171 5171 5172 5173 5173 5173 5174 5175 5177 5178 5179 5180 5183 5184 5185 5187 5190 5192 5193 5195 5197 5201 5208 5211 5214 5217 5219 5222 5224 5229 5233
5154 5155 5155 5155 5156 5156 5156 5157 5157 5158 5159 5159 5160 5161 5162 5163 5164 5166 5167 5168 5170 5172 5174 5177 5179 5181 5183 5185 5189 5193 5198 5202 5205 5209 5211 5214 5217 5222
5139 5140 5141 5141 5142 5142 5143 5143 5144 5145 5145 5146 5147 5148 5149 5150 5151 5153 5154 5156 5157 5159 5161 5163 5166 5168 5171 5173 5175 5180 5184 5188 5192 5197 5201 5204 5208 5212